Lawton, OK

5:48 AM CST on February 13, 2016 (GMT -0600)
Post Army Air Field

Weather History for KFSI - November, 2012

Change the Weather History Date:

Monday, November 5, 2012

  Actual Average Record
Temperature  
Mean Temperature 58 °F -  
Max Temperature 70 °F 66 °F 82 °F (1950)
Min Temperature 44 °F 39 °F 27 °F (1951)
Degree Days  
Heating Degree Days 7    
Growing Degree Days 8 (Base 50)    
Moisture  
Dew Point 36 °F    
Average Humidity 50    
Maximum Humidity 74    
Minimum Humidity 25    
Precipitation  
Precipitation 0.00 in - - ()
Sea Level Pressure  
Sea Level Pressure 30.08 in    
Wind  
Wind Speed 6 mph (North)    
Max Wind Speed 25 mph    
Max Gust Speed 32 mph    
Visibility 9 miles    
Events      
Averages and records for this station are not official NWS values.
T = Trace of Precipitation, MM = Missing Value Source: NWS Daily Summary

Daily Weather History Graph

Daily Weather History Graph

Search for Another Location

Airport or City:

Trip Planner

Search our weather history database for the weather conditions in past years. The results will help you decide how hot, cold, wet, or windy it might be!

Date:

Astronomy

Nov. 05, 2012 Rise Set
Actual Time 6:58 AM CST 5:35 PM CST
Civil Twilight 6:31 AM CST 6:01 PM CST
Nautical Twilight 6:02 AM CST 6:31 PM CST
Astronomical Twilight 5:32 AM CST 7:01 PM CST
Moon 11:14 PM CST (11/5) 12:18 PM CST (11/5)
Length of Visible Light 11h 29m
Length of Day
10h 37m
Waning Gibbous, 62% of the Moon is Illuminated
Nov 5
Waning Gibbous
Nov 6
Last Quarter
Nov 13
New
Nov 20
First Quarter
Nov 28
Full

Hourly Weather History & Observations

Time (CST) Temp. Dew Point Humidity Pressure Visibility Wind Dir Wind Speed Gust Speed Precip Events Conditions
12:55 AM 46.8 °F 37.2 °F 69% 30.06 in 7.0 mi Calm Calm - N/A   Clear
1:26 AM 48.2 °F 37.4 °F 66% 30.06 in 2.5 mi Calm Calm - N/A   Haze
1:31 AM 48.2 °F 37.4 °F 66% 30.06 in 3.0 mi Calm Calm - N/A   Haze
1:55 AM 47.8 °F 37.0 °F 66% 30.05 in 4.0 mi Calm Calm - N/A   Haze
2:55 AM 53.1 °F 37.6 °F 56% 30.05 in 10.0 mi Calm Calm - N/A   Overcast
3:55 AM 49.5 °F 39.9 °F 70% 30.05 in 5.0 mi North 3.5 mph - N/A   Haze
4:55 AM 50.7 °F 41.4 °F 70% 30.05 in 10.0 mi Calm Calm - N/A   Overcast
5:55 AM 51.8 °F 40.1 °F 64% 30.07 in 10.0 mi NNW 4.6 mph - N/A   Mostly Cloudy
6:55 AM 54.7 °F 40.1 °F 58% 30.07 in 10.0 mi North 10.4 mph - N/A   Overcast
7:55 AM 59.5 °F 38.7 °F 46% 30.09 in 10.0 mi North 9.2 mph - N/A   Overcast
8:55 AM 62.8 °F 38.3 °F 40% 30.11 in 10.0 mi North 12.7 mph - N/A   Scattered Clouds
9:55 AM 64.8 °F 39.2 °F 39% 30.12 in 10.0 mi North 13.8 mph - N/A   Mostly Cloudy
10:55 AM 67.6 °F 39.2 °F 35% 30.11 in 10.0 mi North 16.1 mph - N/A   Scattered Clouds
11:55 AM 70.2 °F 34.0 °F 26% 30.10 in 10.0 mi North 23.0 mph 32.2 mph N/A   Partly Cloudy
12:55 PM 70.3 °F 33.1 °F 25% 30.07 in 10.0 mi NNW 18.4 mph 25.3 mph N/A   Clear
1:55 PM 70.0 °F 33.6 °F 26% 30.06 in 10.0 mi North 19.6 mph 31.1 mph N/A   Clear
2:55 PM 69.8 °F 33.3 °F 26% 30.05 in 10.0 mi North 25.3 mph 31.1 mph N/A   Clear
3:55 PM 68.9 °F 32.4 °F 26% 30.06 in 10.0 mi North 21.9 mph 29.9 mph N/A   Clear
4:55 PM 66.6 °F 30.9 °F 26% 30.05 in 10.0 mi North 13.8 mph 24.2 mph N/A   Clear
5:55 PM 61.2 °F 31.1 °F 32% 30.07 in 10.0 mi North 8.1 mph - N/A   Clear
6:55 PM 54.3 °F 32.5 °F 44% 30.09 in 10.0 mi NNE 6.9 mph - N/A   Clear
7:55 PM 53.4 °F 36.5 °F 53% 30.09 in 10.0 mi NNE 6.9 mph - N/A   Clear
8:55 PM 49.6 °F 37.0 °F 62% 30.11 in 10.0 mi Calm Calm - N/A   Clear
9:55 PM 49.5 °F 37.0 °F 62% 30.12 in 10.0 mi Calm Calm - N/A   Clear
10:55 PM 47.5 °F 37.2 °F 68% 30.10 in 10.0 mi NNE 3.5 mph - N/A   Clear
11:55 PM 44.8 °F 36.9 °F 74% 30.11 in 10.0 mi Calm Calm - N/A   Clear